Location: Bourg-d�Oueil
(42.8588°N, 0.4991°E)
Time: 17:07:14
(UTC+00:00)

Meteor 2-10 Rocket - Pass Details

Date: 16 June 2021
Orbit: 734 x 885 km, 81.2° (Epoch: 03 August)

Event Time Altitude Azimuth Distance (km) Brightness Sun altitude
Rises 23:10:34 0° 344° (NNW) 3,225 8.2 -22.8°
Reaches altitude 10° 23:13:00 10° 339° (NNW) 2,279 7.0 -22.9°
Maximum altitude 23:17:53 49° 266° (W) 954 3.9 -23.1°
Enters shadow 23:18:53 42° 230° (SW) 1,042 3.9 -23.1°
